Theta_e
309 304 302 305 306 306 305 303 302 305 308 304 304 305 308 311 311 311 311 313 314 315 317 318 321 324 328 332 334 335 337 339 340 339 337 335 334 337 338 339 341 340 340 339
305 300 307 308 308 305 304 302 301 304 307 306 304 304 308 310 311 312 312 312 314 314 313 314 316 318 319 321 323 326 330 332 334 337 338 337 337 336 336 337 337 337 336 336
304 305 308 307 305 303 303 301 301 300 305 305 303 302 305 310 312 313 313 314 314 313 311 312 313 314 315 316 317 317 319 322 330 334 337 337 336 335 333 334 334 336 336 337
305 308 306 304 304 304 300 305 303 302 301 296 306 296 304 307 307 308 310 312 313 312 311 311 311 311 312 313 316 315 315 315 317 322 325 329 327 324 327 329 334 336 337 334
301 303 303 302 304 305 302 307 305 303 301 301 301 298 302 307 303 305 308 310 312 311 310 309 310 310 311 312 313 314 313 314 315 316 318 317 318 319 320 323 330 332 333 333
303 309 306 305 306 306 306 304 303 302 300 293 299 299 299 303 306 306 308 310 310 310 309 308 308 308 308 310 311 311 310 310 312 314 315 315 316 316 316 318 320 322 327 331
300 301 305 304 302 306 304 300 292 290 291 291 301 298 301 307 307 309 307 308 309 308 307 304 304 304 304 305 306 308 307 307 309 311 312 313 314 316 315 315 316 317 319 323
294 292 300 304 302 299 299 297 293 286 288 293 301 295 302 306 307 310 310 309 308 305 304 303 303 303 303 304 304 306 307 307 308 309 310 312 313 312 314 314 315 316 317 319
295 295 304 304 304 303 299 295 300 294 295 291 296 300 301 303 305 307 307 308 304 302 302 302 302 303 304 304 303 305 306 307 308 308 310 311 311 311 311 314 317 316 317 317
301 293 302 303 306 305 301 303 293 292 285 285 293 295 296 298 301 304 305 305 303 301 301 301 302 302 303 304 305 306 307 306 307 309 309 309 311 311 312 313 314 316 317 317
302 299 296 301 299 298 297 296 297 297 295 289 289 294 301 302 302 302 303 303 301 300 301 301 302 302 303 304 305 306 306 306 307 309 309 311 312 312 313 313 314 315 316 313
303 298 292 295 303 304 302 299 299 292 290 295 295 296 303 305 304 304 302 301 300 301 301 301 302 302 302 303 304 304 306 307 308 309 309 310 312 312 312 313 313 314 312 311
300 295 287 290 294 297 295 301 300 299 299 294 289 294 302 305 303 303 301 298 298 299 300 301 301 301 302 303 304 304 305 306 308 309 310 311 311 311 311 311 308 308 307 307
303 298 296 290 293 297 293 296 300 297 290 292 295 296 298 301 301 302 299 299 298 298 299 300 300 301 302 303 304 304 305 307 308 309 310 310 310 310 307 305 305 305 305 304
302 295 297 298 299 297 295 294 295 294 296 291 296 296 297 300 301 300 299 298 298 297 297 298 298 301 301 301 302 304 305 307 308 308 309 309 307 305 302 302 301 302 301 299
299 292 294 292 296 295 292 295 296 295 295 295 296 296 302 303 302 299 299 296 295 296 296 297 298 298 298 299 301 302 305 306 308 307 307 305 301 300 300 300 299 300 298 297
292 292 288 286 293 291 285 291 293 294 296 295 291 297 301 300 300 300 297 296 295 296 296 297 297 298 299 300 301 302 304 306 306 304 301 299 300 299 299 299 299 298 296 296
291 290 288 286 285 279 293 296 296 295 296 297 297 299 300 300 300 299 297 296 296 296 297 297 297 298 299 300 301 303 304 305 303 300 300 299 299 298 298 298 297 296 294 292
294 290 285 282 282 289 291 288 292 293 293 298 297 298 297 296 296 294 297 298 297 297 298 298 299 299 299 299 301 301 302 303 301 299 299 299 299 298 296 296 296 294 291 290
291 292 288 283 281 280 291 295 296 297 287 297 298 297 297 295 288 293 298 296 296 297 298 297 298 298 299 300 301 300 300 301 301 299 298 297 297 295 295 295 294 294 292 289
284 285 283 283 283 287 290 292 295 284 287 296 298 298 298 296 295 296 297 297 298 297 297 299 299 298 299 300 301 298 299 299 302 300 297 296 293 291 295 295 294 292 290 289
284 283 282 285 282 281 291 289 286 292 294 293 295 295 294 295 296 296 296 296 296 296 297 298 298 298 299 300 300 298 298 300 301 300 297 293 291 291 291 290 290 290 290 288
285 290 287 288 287 292 292 289 293 295 293 293 294 294 295 294 294 294 294 295 295 296 296 298 297 297 299 299 300 299 299 300 299 297 291 291 291 289 289 289 288 289 290 290
290 293 289 286 287 289 290 292 293 294 293 294 294 293 293 292 293 293 294 294 294 295 295 296 296 296 297 298 299 300 300 300 298 294 293 290 289 288 288 289 289 290 290 289
289 289 286 287 288 289 291 292 293 293 294 293 293 292 292 292 291 292 292 293 293 294 295 296 296 296 296 297 298 299 300 300 298 295 292 289 289 289 288 289 290 290 289 289
288 286 285 284 289 288 289 293 294 292 291 291 291 291 292 292 291 292 293 294 294 294 295 296 296 296 296 297 297 298 300 300 297 294 291 290 290 290 290 288 286 285 286 286
Wind_Speed
24 19 21 29 26 23 20 13 14 10 15 7 12 16 15 14 18 16 9 11 10 8 9 9 9 9 10 9 9 6 6 5 6 4 4 3 4 5 4 5 3 4 5 7
18 25 27 25 23 22 23 20 18 16 16 11 14 19 20 18 18 14 17 16 13 10 10 10 11 10 11 10 10 9 8 8 1 7 6 5 3 5 5 5 7 7 6 6
27 18 26 24 24 22 22 22 18 18 10 12 15 22 24 22 26 18 10 10 15 14 11 10 11 11 11 10 9 9 10 10 10 8 8 3 1 3 4 5 6 8 10 11
28 22 18 27 26 20 23 20 18 17 16 17 18 18 19 7 12 12 13 13 14 14 12 10 11 11 10 9 8 8 8 9 9 11 8 10 6 6 5 6 2 3 6 8
29 25 29 24 23 22 20 14 17 17 17 18 22 17 14 19 15 14 15 16 15 13 13 11 10 10 9 7 6 5 6 7 7 6 5 5 6 6 7 6 8 8 7 5
28 19 23 22 20 21 13 14 10 12 13 21 20 21 19 20 18 23 19 18 18 15 12 10 8 6 7 5 4 3 4 4 4 4 5 6 7 8 8 9 8 8 6 5
23 27 17 7 22 21 19 13 10 12 15 18 17 20 17 16 5 23 23 20 17 15 12 10 8 6 3 2 2 2 4 5 5 5 5 6 7 9 10 10 9 10 8 7
26 27 31 17 21 18 21 19 13 13 14 16 18 16 10 10 4 20 21 20 16 14 11 9 7 5 3 0 3 5 6 7 7 7 8 7 9 8 8 9 8 8 9 9
20 33 24 34 22 23 21 25 19 21 14 11 10 6 7 8 12 18 21 20 17 14 12 9 7 5 1 2 3 4 6 7 7 7 7 9 10 10 10 11 10 8 9 8
24 14 23 22 27 29 31 13 19 3 10 15 13 22 16 21 21 22 22 21 18 14 11 9 7 4 3 3 5 4 6 8 8 8 8 8 10 12 12 11 11 11 10 9
26 10 8 13 21 21 18 17 11 9 13 9 14 13 10 20 20 22 21 19 16 14 12 8 5 4 5 5 5 5 6 8 8 9 9 9 10 10 11 10 10 10 8 10
19 4 13 20 17 23 25 22 22 7 6 13 13 11 3 16 19 19 20 17 14 11 8 7 5 4 5 5 5 6 7 9 10 10 10 10 11 10 10 10 9 8 9 9
11 6 6 12 7 12 13 22 24 17 12 18 9 3 3 10 17 19 19 15 11 11 9 7 6 4 5 6 6 8 9 10 11 11 12 12 10 10 11 7 7 8 9 8
20 7 12 12 11 14 24 21 23 23 12 14 23 14 9 13 17 18 17 14 13 10 8 6 5 4 5 6 8 9 10 10 11 12 13 12 10 5 3 4 6 7 7 7
17 16 22 23 21 11 12 23 25 29 27 21 15 23 16 18 18 20 18 15 12 11 8 5 4 2 5 6 8 10 11 10 11 13 13 10 4 2 1 5 5 5 5 5
13 8 10 14 16 16 13 22 23 28 28 30 23 23 14 14 18 18 18 12 12 9 5 3 2 2 5 6 7 10 10 10 10 11 9 3 1 3 5 4 4 4 3 3
11 9 7 9 16 4 13 26 27 22 24 22 24 20 18 8 16 18 15 13 10 8 6 6 5 4 3 5 7 10 11 8 9 9 4 4 5 6 5 4 4 3 2 0
12 9 5 3 9 10 12 2 23 28 25 23 24 19 12 8 16 12 9 10 11 8 8 7 6 4 4 5 7 9 10 8 6 6 6 6 6 7 5 5 5 3 0 2
12 10 6 7 12 10 11 6 10 20 22 23 21 18 10 6 6 9 11 8 8 8 6 6 5 4 6 6 7 9 7 6 4 7 6 6 6 5 4 5 5 3 2 2
7 8 8 7 7 12 4 13 11 9 16 15 19 16 17 17 10 10 17 10 8 8 8 7 6 5 6 5 6 9 9 6 7 5 7 4 3 0 3 2 3 3 3 3
8 6 14 9 8 9 7 12 12 11 2 6 12 15 16 12 9 9 12 10 7 6 7 7 8 8 9 5 3 10 8 6 5 5 4 2 3 4 4 5 2 4 3 3
15 13 9 7 9 16 19 14 12 9 9 9 9 10 11 9 8 6 6 7 7 8 8 10 11 11 7 5 4 10 7 6 4 5 4 4 5 4 3 4 3 4 4 4
11 10 10 12 5 3 20 6 8 9 13 10 13 10 10 8 8 8 7 8 8 9 9 9 9 9 7 7 7 8 9 5 3 3 3 4 5 6 4 4 5 4 4 4
8 10 6 10 7 13 13 13 12 12 12 11 10 9 7 6 7 8 9 10 11 10 9 9 8 10 10 9 10 7 6 5 4 5 5 5 5 5 5 3 4 4 4 4
7 15 13 7 12 11 12 14 14 12 12 10 7 5 6 7 7 9 9 10 9 9 9 8 10 10 11 11 10 9 6 6 7 6 5 5 4 6 6 5 3 2 1 1
12 17 13 7 20 8 19 16 15 14 10 7 7 8 8 7 8 9 9 8 9 9 9 9 11 11 11 10 9 11 7 8 9 6 6 5 4 4 4 5 3 4 2 3
Wind_Direction
204 205 211 223 223 244 264 280 280 193 239 237 257 265 251 223 213 219 209 207 196 154 124 103 86 80 75 73 86 85 128 199 184 187 193 212 231 234 238 257 252 224 221 209
194 221 221 228 238 233 247 252 248 257 261 239 262 260 260 247 246 233 214 195 181 162 149 127 111 94 84 76 72 75 75 65 48 167 181 204 193 220 219 223 238 232 226 212
217 215 226 227 228 231 229 240 234 250 242 213 250 262 259 252 238 236 236 191 165 179 157 145 127 111 100 84 72 67 61 56 34 9 129 102 262 277 244 221 223 225 231 229
235 229 227 219 229 220 232 227 238 249 252 251 245 268 264 112 185 200 201 189 176 166 162 149 135 121 107 94 77 65 55 51 42 18 19 6 325 319 349 319 331 265 195 220
232 221 235 225 219 214 234 256 238 230 255 268 250 256 246 254 189 192 184 181 169 168 171 158 146 130 99 83 70 52 31 41 38 22 15 339 329 329 319 317 302 291 282 240
241 212 235 215 216 221 207 240 238 240 250 251 247 254 251 248 238 181 178 180 171 168 159 150 148 142 119 111 86 52 11 14 14 348 343 332 321 313 305 305 300 284 267 274
220 234 204 289 219 210 200 221 228 235 222 251 243 238 237 237 244 167 168 172 168 164 166 171 165 153 121 81 53 335 347 334 340 330 325 315 305 299 292 288 295 296 286 276
215 217 221 186 219 199 208 214 228 247 248 264 235 235 230 45 102 138 159 164 164 170 177 178 167 168 163 180 343 334 329 327 328 318 315 305 302 295 295 289 300 303 301 304
219 230 206 214 200 224 199 218 239 264 259 279 259 217 118 148 156 150 161 161 170 176 183 181 180 182 214 303 310 316 306 291 284 283 284 292 290 285 285 289 287 283 293 290
234 274 215 213 214 208 234 203 208 201 223 237 232 237 250 175 171 167 164 172 178 180 183 185 196 176 246 281 284 269 273 281 293 308 303 291 290 294 289 283 276 278 283 288
221 244 210 168 199 201 195 213 204 221 234 245 264 253 352 171 175 175 170 176 175 188 192 191 194 209 246 262 276 285 300 305 306 313 302 293 287 276 277 279 283 291 312 310
204 150 197 189 213 220 209 195 194 195 189 236 260 264 354 150 171 176 170 170 180 188 189 205 205 219 262 272 287 302 314 314 319 312 303 295 292 282 272 266 276 299 298 297
153 202 150 182 224 221 234 209 200 218 249 231 218 138 166 159 169 175 166 170 176 191 200 203 204 245 280 310 318 320 318 313 309 305 297 293 282 273 270 310 345 308 304 306
160 188 221 186 175 186 209 220 218 198 228 233 239 248 184 186 178 173 168 178 191 187 211 230 236 235 303 329 315 311 307 303 306 301 293 291 280 299 358 354 296 293 312 319
171 210 219 247 267 180 231 213 226 229 228 220 238 242 202 193 190 184 180 189 195 208 212 220 242 330 314 305 314 303 299 301 301 302 298 291 46 18 301 263 276 291 317 337
203 200 227 248 241 253 244 248 226 227 237 244 239 246 269 201 186 185 191 183 208 218 217 198 192 242 276 301 302 313 300 300 326 303 317 3 277 234 241 246 265 278 317 328
161 162 151 232 230 235 272 237 237 232 232 231 239 242 243 172 189 189 181 205 212 217 195 188 208 226 300 314 309 308 312 320 325 324 300 245 230 230 214 223 248 250 247 136
170 161 155 132 125 210 247 196 221 228 230 231 241 242 251 247 182 188 189 208 202 200 190 202 220 232 279 314 331 328 329 349 324 282 255 232 231 231 221 214 228 223 202 52
177 159 151 176 212 287 237 199 189 203 228 234 236 231 183 144 139 174 218 198 201 191 197 228 235 258 287 309 349 337 333 295 288 266 251 238 233 237 211 217 217 184 135 113
182 207 194 172 208 222 275 158 193 208 244 223 225 216 205 171 193 228 188 162 188 198 212 227 243 263 271 288 341 324 330 316 265 242 241 223 193 289 266 235 194 165 140 128
163 180 199 184 219 256 124 138 148 166 131 132 191 214 207 210 179 105 129 163 209 235 255 251 249 263 266 278 348 308 324 307 275 226 208 195 148 178 231 199 169 145 161 143
162 170 188 190 209 235 150 161 181 111 128 131 145 141 160 170 129 138 183 218 247 261 263 269 271 273 295 303 332 295 311 332 297 229 206 154 162 157 150 140 145 160 156 175
186 202 170 198 199 114 153 167 125 138 129 133 128 129 140 156 179 196 230 245 251 265 274 277 282 285 288 284 222 277 313 319 292 225 171 177 176 153 166 167 169 173 197 193
177 163 194 143 175 161 156 148 154 150 141 133 132 141 155 192 210 231 242 247 249 253 261 272 278 283 283 287 288 274 293 292 246 220 193 180 173 159 151 165 182 202 194 209
164 163 170 170 168 156 173 179 165 154 140 144 144 180 211 220 228 245 254 259 266 273 273 268 273 272 281 286 288 292 278 266 261 233 194 174 194 181 168 181 190 200 192 205
171 178 185 185 165 155 174 168 172 157 171 183 192 195 204 218 240 248 257 266 270 271 274 275 271 270 273 279 289 293 257 249 252 199 216 185 179 183 184 156 133 56 101 184